"Pseudo-MPEC" for ZTF0383

Created 2019 May 24 15:07:31 UT using Find_Orb

Click here for an explanation of pseudo-MPECs

 
 Astrometry: 
     ZTF0383  C2019 05 13.39708717 20 40.18 +20 43 32.4    ~5IMq 19.66RUNEOCPI41
     ZTF0383  C2019 05 13.39743317 20 40.67 +20 43 44.1    ~5IMq 19.66RUNEOCPI41
     ZTF0383  C2019 05 14.32066017 55 15.04 +31 51 57.8    ~5EJb 18.49RUNEOCPI41
     ZTF0383  C2019 05 14.32100717 55 15.91 +31 52 15.4    ~5EJb 18.49RUNEOCPI41
     ZTF0383  C2019 05 14.36098417 57 16.34 +32 27 31.0    ~5EH7 18.74RUNEOCPI41
     ZTF0383  C2019 05 14.36133117 57 17.37 +32 27 51.0    ~5EH7 18.74RUNEOCPI41
     ZTF0383  C2019 05 14.44343818 01 35.82 +33 41 35.2    ~5EH7 19.50gUNEOCPI41
     ZTF0383  C2019 05 14.44378518 01 36.84 +33 41 53.2    ~5EH7 19.50gUNEOCPI41
     ZTF0383 KC2019 05 14.93078618 35 28.73 +41 33 02.8    ~5EN7 19.2 GVNEOCPJ95
     ZTF0383 KC2019 05 14.93567018 35 53.34 +41 38 05.4    ~5EN7 19.2 GVNEOCPJ95
     ZTF0383 KC2019 05 14.94001918 36 15.34 +41 42 35.6    ~5EN7 19.0 GVNEOCPJ95
     ZTF0383 KC2019 05 14.94446118 36 37.92 +41 47 12.5    ~5EN7 19.0 GVNEOCPJ95
     ZTF0383 KC2019 05 14.98810218 40 23.40 +42 32 32.8    ~5F37 19.7 GVNEOCPZ80
     ZTF0383 KC2019 05 14.99021 18 40 36.52 +42 35 16.1    ~5F17 19.4 VqNEOCPI93
     ZTF0383 KC2019 05 14.99573118 41 03.69 +42 40 29.3    ~5F37 19.2 GVNEOCPZ80
     ZTF0383 KC2019 05 15.00199118 41 36.87 +42 47 00.3    ~5F37 19.1 GVNEOCPZ80
     ZTF0383 KC2019 05 15.00348 18 41 46.66 +42 49 04.7    ~5F17 18.9 VqNEOCPI93
     ZTF0383 KC2019 05 15.01210 18 42 32.65 +42 58 04.2    ~5F17 18.6 VqNEOCPI93
     ZTF0383 KC2019 05 15.31713519 14 21.64 +48 12 30.7    ~5F8b 20.8 GVNEOCPH01
     ZTF0383 KC2019 05 15.32475419 15 15.33 +48 20 18.5    ~5F8b 21.1 GVNEOCPH01
     ZTF0383  C2019 05 15.33751119 16 45.98 +48 33 19.7    ~5F8b 19.8 GVNEOCPH01
     ZTF0383  C2019 05 15.34107819 17 11.48 +48 36 57.5    ~5F8b 19.5 GVNEOCPH01

Station data:
(H01) Magdalena Ridge Observatory, Socorro  (N33.984833 W107.189333)  US/New
   Mexico.  Observers W. H. Ryan, E. V. Ryan. Measurer W. H. Ryan. 2.4-m
   f/8.9 reflector + CCD.
(I41) Palomar Mountain--ZTF  (N33.357340 W116.859780)  US/California. 1.2-m
   f/2.44 Oschin Schmidt + CCD.
(I93) St Pardon de Conques  (N44.558710 W0.203000)  France.  Observer F.
   Losse. 0.40-m f/3.7 reflector + CCD.
(J95) Great Shefford  (N51.474969 W1.447003)  UK.  Observer P. Birtwhistle.
   0.40-m f/6.0 Schmidt-Cassegrain + CCD.
(Z80) Northolt Branch Observatory  (N51.554661 W0.371920)  UK.  Observer G.
   Wells. Measurer D. Bamberger. 0.25-m f/8 Ritchey-Chrétien + CCD.

Orbital elements:  ZTF0383
   Perihelion 2019 Jul 4.547816 +/- 0.0429 TT = 13:08:51 (JD 2458669.047816)
Epoch 2019 May 15.0 TT = JDT 2458618.5   Earth MOID: 0.0001   Ve: 0.0027
M 336.35044087 +/- 0.10             Ma: 0.0186                AutoNEOCP
n   0.46786510 +/- 0.00167          Peri.  260.85962 +/- 0.010
a   1.64332051 +/- 0.00391          Node    74.87875 +/- 0.008
e   0.6823462 +/- 0.001             Incl.    4.14115 +/- 0.0052
P   2.11/769.44d           H 24.7   G  0.15   U  8.4  
q 0.52200698 +/- 0.000404    Q 2.76463404 +/- 0.00824
From 22 observations 2019 May 13-15 (46.7 hr); mean residual 0".57
Residuals in arcseconds: 
190513 I41  .21-  .38+    190514 J95  .10+  .49+    190515 I93  .15-  .08-    
190513 I41  .84-  .15-    190514 J95  .10-  .35-    190515 I93  .00   .46+    
190514 I41  2.2+  1.3+    190514 J95  .18-  .48-    190515 H01  .34+  .32+    
190514 I41  .14+  .62+    190514 J95  .11+  .18+    190515 H01  .24+  .17+    
190514 I41  .27+  1.2-    190514 Z80  .55-  .55-    190515 H01  .37+  .28+    
190514 I41  .11-  .36+    190514 I93  .19+  .78+    190515 H01  .30+  .25+    
190514 I41  1.0+  .05+    190514 Z80  .14-  .14-    
190514 I41  .31-  .85-    190515 Z80  .50-  .09+    

Ephemerides (geocentric):
Date (UTC) HH   RA              Dec         delta   r     elong  mag " sig PA
---- -- -- --  -------------   -----------  ------ ------ -----  --- ---- ---
2019 05 24 15  03 25 22.419   +24 59 58.82  .11617 .89838   9.7 35?? .634 164
2019 05 24 16  03 25 31.621   +24 56 56.75  .11670 .89786   9.7 35?? .633 164
2019 05 24 17  03 25 40.737   +24 53 56.27  .11723 .89733   9.7 35?? .633 164
2019 05 24 18  03 25 49.767   +24 50 57.36  .11777 .89681   9.7 35?? .633 164
2019 05 24 19  03 25 58.714   +24 48 00.00  .11830 .89629   9.7 35?? .633 164
2019 05 24 20  03 26 07.579   +24 45 04.18  .11883 .89577   9.6 35?? .633 164
2019 05 24 21  03 26 16.362   +24 42 09.86  .11936 .89525   9.6 35?? .633 164
2019 05 24 22  03 26 25.066   +24 39 17.04  .11989 .89473   9.6 35?? .632 164
2019 05 24 23  03 26 33.690   +24 36 25.70  .12043 .89421   9.6 35?? .632 163
2019 05 25 00  03 26 42.237   +24 33 35.81  .12096 .89368   9.6 36?? .632 163
2019 05 25 01  03 26 50.707   +24 30 47.36  .12149 .89316   9.6 36?? .632 163
2019 05 25 02  03 26 59.101   +24 28 00.33  .12203 .89264   9.6 36?? .632 163
2019 05 25 03  03 27 07.421   +24 25 14.71  .12256 .89212   9.5 36?? .632 163
2019 05 25 04  03 27 15.667   +24 22 30.48  .12310 .89160   9.5 36?? .632 163
2019 05 25 05  03 27 23.841   +24 19 47.62  .12363 .89108   9.5 36?? .632 163
2019 05 25 06  03 27 31.944   +24 17 06.11  .12417 .89055   9.5 36?? .631 163
2019 05 25 07  03 27 39.976   +24 14 25.94  .12470 .89003   9.5 36?? .631 163
2019 05 25 08  03 27 47.939   +24 11 47.10  .12524 .88951   9.5 36?? .631 163
2019 05 25 09  03 27 55.833   +24 09 09.56  .12577 .88899   9.5 36?? .631 163
2019 05 25 10  03 28 03.660   +24 06 33.31  .12631 .88847   9.5 36?? .631 163
2019 05 25 11  03 28 11.420   +24 03 58.34  .12684 .88795   9.5 36?? .631 163
2019 05 25 12  03 28 19.115   +24 01 24.64  .12738 .88742   9.5 36?? .631 163
2019 05 25 13  03 28 26.744   +23 58 52.18  .12791 .88690   9.4 36?? .631 163
2019 05 25 14  03 28 34.310   +23 56 20.95  .12845 .88638   9.4 36?? .631 163
2019 05 25 15  03 28 41.813   +23 53 50.94  .12899 .88586   9.4 36?? .631 163
2019 05 25 16  03 28 49.254   +23 51 22.13  .12953 .88534   9.4 36?? .631 163
2019 05 25 17  03 28 56.633   +23 48 54.52  .13006 .88482   9.4 36?? .631 163
2019 05 25 18  03 29 03.952   +23 46 28.08  .13060 .88429   9.4 36?? .631 163
2019 05 25 19  03 29 11.211   +23 44 02.81  .13114 .88377   9.4 36?? .631 163
2019 05 25 20  03 29 18.411   +23 41 38.68  .13168 .88325   9.4 36?? .631 163
2019 05 25 21  03 29 25.553   +23 39 15.70  .13222 .88273   9.4 36?? .631 163
2019 05 25 22  03 29 32.638   +23 36 53.83  .13275 .88221   9.4 36?? .631 163
2019 05 25 23  03 29 39.666   +23 34 33.09  .13329 .88168   9.4 36?? .631 162
2019 05 26 00  03 29 46.638   +23 32 13.44  .13383 .88116   9.4 36?? .631 162
2019 05 26 01  03 29 53.555   +23 29 54.87  .13437 .88064   9.4 36?? .631 162
2019 05 26 02  03 30 00.417   +23 27 37.39  .13491 .88012   9.4 36?? .632 162
2019 05 26 03  03 30 07.226   +23 25 20.96  .13545 .87960   9.4 36?? .632 162
2019 05 26 04  03 30 13.982   +23 23 05.59  .13599 .87908   9.4 36?? .632 162
2019 05 26 05  03 30 20.686   +23 20 51.26  .13653 .87855   9.4 36?? .632 162
2019 05 26 06  03 30 27.338   +23 18 37.95  .13707 .87803   9.4 36?? .632 162
2019 05 26 07  03 30 33.938   +23 16 25.67  .13761 .87751   9.4 36?? .632 162
2019 05 26 08  03 30 40.489   +23 14 14.39  .13815 .87699   9.4 36?? .632 162
2019 05 26 09  03 30 46.990   +23 12 04.11  .13870 .87647   9.4 36?? .632 162
2019 05 26 10  03 30 53.442   +23 09 54.81  .13924 .87595   9.4 36?? .633 162
2019 05 26 11  03 30 59.845   +23 07 46.49  .13978 .87542   9.5 36?? .633 162
2019 05 26 12  03 31 06.200   +23 05 39.13  .14032 .87490   9.5 36?? .633 162
2019 05 26 13  03 31 12.509   +23 03 32.72  .14086 .87438   9.5 36?? .633 162
2019 05 26 14  03 31 18.770   +23 01 27.26  .14141 .87386   9.5 36?? .633 162